Voltar ao catálogo

TRANSIT 2A

AtivoNavegaçãoLEO
NORAD 45·PAYLOAD·🇺🇸 United States

Lançado Jun 22, 1960 de Cape Canaveral Space Force Station

Loading…

Próximas Passagens (próximas 24 horas)

TLE

AtualizadoSource: Space-Track

Época: Sep 14, 2026, 09:06 UTC

1 00045U 60007A   26257.37950718  .00000199  00000-0  75387-4 0  9997
2 00045  66.6927 124.2971 0240848  94.1674 268.6991 14.36022961392852

Acompanhe TRANSIT 2A em tempo real com AllMySat

Download on the App Store